This demonstration page uses our WeatherBlox Daily Observations layout. Learn more.

Left ArrowRight Arrow

44.8408, -93.29828

Hourly Observations for February 2, 2022

Temp ( °F °C ) Dew Point ( °F °C ) Humidity (%) Winds ( mph kmh ) Pressure ( in mb ) Visibility ( mi km ) Precip ( " mm )
12:53 am 00:53 Mostly Clear 3 -16.1 -6 -21.1 66 66 NW 12 19 30.37 1028 10 16 0.00 0.00
1:53 am 01:53 Mostly Clear 2 -16.7 -6 -21.1 69 69 NW 8 13 30.40 1030 10 16 0.00 0.00
2:53 am 02:53 Mostly Clear 2 -16.7 -7 -21.7 65 65 NW 12 19 30.43 1031 10 16 0.00 0.00
3:53 am 03:53 Partly Cloudy 1 -17.2 -7 -21.7 68 68 NNW 13 20 30.45 1031 10 16 0.00 0.00
4:53 am 04:53 Partly Cloudy 0 -17.8 -8 -22.2 69 69 NNW 14 22 30.46 1032 10 16 0.00 0.00
5:53 am 05:53 Partly Cloudy -1 -18.3 -9 -22.8 68 68 NNW 12 19 30.49 1033 10 16 0.00 0.00
6:53 am 06:53 Mostly Cloudy -1 -18.3 -10 -23.3 65 65 NNW 12 19 30.53 1034 10 16 0.00 0.00
7:53 am 07:53 Mostly Cloudy -1 -18.3 -10 -23.3 65 65 NNW 12 19 30.55 1035 10 16 0.00 0.00
8:53 am 08:53 Mostly Cloudy -1 -18.3 -10 -23.3 65 65 NNW 13 20 30.59 1036 10 16 0.00 0.00
9:53 am 09:53 Mostly Cloudy 1 -17.2 -9 -22.8 62 62 N 13 20 30.60 1036 10 16 0.00 0.00
10:53 am 10:53 Partly Cloudy 2 -16.7 -8 -22.2 63 63 N 12 19 30.60 1036 10 16 0.00 0.00
11:53 am 11:53 Partly Cloudy 4 -15.6 -8 -22.2 57 57 NNW 13 20 30.60 1036 10 16 0.00 0.00
12:53 pm 12:53 Partly Cloudy 5 -15 -8 -22.2 54 54 NNW 18 30 30.60 1036 10 16 0.00 0.00
1:53 pm 13:53 Partly Cloudy 6 -14.4 -8 -22.2 52 52 NNW 14 22 30.59 1036 10 16 0.00 0.00
2:53 pm 14:53 Partly Cloudy 6 -14.4 -9 -22.8 49 49 NNW 18 30 30.60 1036 10 16 0.00 0.00
3:53 pm 15:53 Partly Cloudy 5 -15 -10 -23.3 49 49 NW 16 26 30.62 1037 10 16 0.00 0.00
4:53 pm 16:53 Partly Cloudy 3 -16.1 -10 -23.3 54 54 NW 14 22 30.62 1037 10 16 0.00 0.00
5:53 pm 17:53 Partly Cloudy 2 -16.7 -11 -23.9 54 54 NW 10 17 30.65 1038 10 16 0.00 0.00
6:53 pm 18:53 Partly Cloudy 1 -17.2 -12 -24.4 54 54 NW 10 17 30.66 1038 10 16 0.00 0.00
7:53 pm 19:53 Partly Cloudy 0 -17.8 -13 -25 54 54 NW 9 15 30.67 1039 10 16 0.00 0.00
8:53 pm 20:53 Partly Cloudy -1 -18.3 -13 -25 56 56 NNW 10 17 30.67 1039 10 16 0.00 0.00
9:53 pm 21:53 Partly Cloudy -2 -18.9 -14 -25.6 56 56 NNW 9 15 30.69 1039 10 16 0.00 0.00
10:53 pm 22:53 Partly Cloudy -3 -19.4 -14 -25.6 58 58 NNW 8 13 30.70 1040 10 16 0.00 0.00
11:53 pm 23:53 Partly Cloudy -3 -19.4 -14 -25.6 58 58 NNW 8 13 30.73 1041 10 16 0.00 0.00

Powered by AerisWeather